Meteo Giornale » Osservazioni meteo Belgio » Florennes

ore: 04:25 - Osservazioni Meteo Florennes
Lat. 50° 14' N Lon. 4° 39' E Alt. 279 metri s.l.m.

coperto Europe/Brussels

13 °C

Coperto

Temp. 24 Ore

10 °C

19 °C

Ovest/Sud-Ovest

9.3 Km/h

Dew point 13 °C

Umidità 100 %

Visibilità  7 Km

Il sole sorge alle ore 07:29

Il sole tramonta alle ore 19:37

Data e Ora Cielo e Fenomeni T °C DP °C Um. % Pres. hPa Vis. km Vento km/h
Oggi h: 04:25 coperto Coperto 13 13 100 1018 7 O/SO 9.3
Oggi h: 03:55 coperto Coperto 13 13 100 1019 8 O/SO 9.3
Oggi h: 03:25 molto_nuvoloso Molto Nuvoloso 14 13 93 1019 10 O/SO 9.3
Oggi h: 02:55 coperto Coperto 14 13 93 1019 10 O/SO 7.4
Oggi h: 02:25 coperto Coperto 13 13 100 1019 10 O 11.1
Oggi h: 01:55 molto_nuvoloso Molto Nuvoloso 13 13 100 1019 10 O/SO 11.1
Oggi h: 01:34 coperto Coperto 13 13 100 1019 10 O 13
Oggi h: 01:25 coperto Coperto 13 12 93 1019 10 O 13
Oggi h: 00:55 molto_nuvoloso Molto Nuvoloso 13 12 93 1019 10 O 11.1
Ieri h: 23:25 molto_nuvoloso Molto Nuvoloso 13 12 93 1020 10 O 13
Ieri h: 22:55 molto_nuvoloso Molto Nuvoloso 15 12 82 1019 10 O 13
Ieri h: 22:25 molto_nuvoloso Molto Nuvoloso 14 12 87 1019 10 O 13
Ieri h: 21:55 molto_nuvoloso Molto Nuvoloso 15 12 82 1019 10 O/SO 9.3
Ieri h: 21:25 molto_nuvoloso Molto Nuvoloso 15 12 82 1019 10 O/SO 11.1
Ieri h: 20:40 poco_nuvoloso Poco Nuvoloso 16 13 82 1018 10 SO 16.7
Ieri h: 20:25 molto_nuvoloso Molto Nuvoloso 16 12 77 1019 10 O/SO 11.1
Ieri h: 19:55 molto_nuvoloso Molto Nuvoloso 17 12 72 1019 10 SO 9.3
Ieri h: 19:25 coperto Coperto 17 12 72 1019 10 O 11.1
Ieri h: 18:55 molto_nuvoloso Molto Nuvoloso 18 12 67 1019 10 O 13
Ieri h: 18:25 molto_nuvoloso Molto Nuvoloso 18 12 67 1019 10 O/NO 14.8
Ieri h: 17:55 poco_nuvoloso Poco Nuvoloso 18 12 67 1019 10 O 18.5
Ieri h: 17:25 poco_nuvoloso Poco Nuvoloso 19 12 63 1019 10 O/SO 20.3
Ieri h: 17:07 nuvoloso Nuvoloso 19 12 63 1019 10 O 20.3
Ieri h: 16:25 nuvoloso Nuvoloso 19 11 59 1020 10 O 20.3
Ieri h: 15:55 nuvoloso Nuvoloso 19 11 59 1020 10 O 22.2
Ieri h: 15:25 nuvoloso Nuvoloso 19 10 55 1020 10 O 22.2
Ieri h: 14:55 nuvoloso Nuvoloso 19 9 52 1020 10 O/SO 22.2
Ieri h: 14:25 nuvoloso Nuvoloso 19 9 52 1020 10 O/SO 20.3
Ieri h: 13:55 nuvoloso Nuvoloso 19 9 52 1020 10 O 22.2
Ieri h: 13:25 poco_nuvoloso Poco Nuvoloso 18 10 59 1021 10 O 20.3
Ieri h: 12:55 poco_nuvoloso Poco Nuvoloso 17 9 59 1021 10 O/SO 18.5
Ieri h: 12:25 poco_nuvoloso Poco Nuvoloso 17 9 59 1021 10 O/SO 16.7
Ieri h: 11:55 poco_nuvoloso Poco Nuvoloso 17 9 59 1021 10 SO 16.7
Ieri h: 10:55 poco_nuvoloso Poco Nuvoloso 15 10 72 1022 10 O 13
Ieri h: 10:25 poco_nuvoloso Poco Nuvoloso 14 9 71 1022 10 O 13
Ieri h: 09:55 poco_nuvoloso Poco Nuvoloso 14 10 76 1022 10 O 7.4
Ieri h: 09:25 poco_nuvoloso Poco Nuvoloso 13 9 76 1022 10 N 1.8
Ieri h: 08:55 poco_nuvoloso Poco Nuvoloso 12 9 81 1022 10 N 1.8
Ieri h: 08:25 poco_nuvoloso Poco Nuvoloso 10 8 87 1022 10 N 3.7
Ieri h: 07:55 poco_nuvoloso Poco Nuvoloso 11 8 81 1022 10 N 5.5
Ieri h: 07:25 poco_nuvoloso Poco Nuvoloso 10 8 87 1022 10 N 3.7
Ieri h: 06:55 poco_nuvoloso Poco Nuvoloso 11 8 81 1022 10 N 3.7
Ieri h: 06:25 poco_nuvoloso Poco Nuvoloso 11 8 81 1022 10 N 1.8
Ieri h: 05:55 molto_nuvoloso Molto Nuvoloso 10 8 87 1022 10 N 5.5